This demonstration page uses our WeatherBlox Daily Observations layout. Learn more.

Hourly Observations for September 29, 2018

Temp ( °F °C ) Dew Point ( °F °C ) Humidity (%) Winds ( mph kmh ) Pressure ( in mb ) Visibility ( mi km ) Precip ( " mm )
12:15 am 00:15 Cloudy 46 8 39 4 76 76 SSE 6 9 30.33 1027 10 16.09344 0 0
12:35 am 00:35 Cloudy 46 7.8 39 4 77 77 SSE 6 9 30.33 1027 10 16.09344 0 0
12:55 am 00:55 Cloudy 46 7.6 38 3.6 76 76 SE 8 13 30.3 1026 10 16.09344 0 0
1:15 am 01:15 Cloudy 46 7.5 38 3.6 77 77 SSE 5 7 30.3 1026 10 16.09344 0 0
1:35 am 01:35 Cloudy 46 7.5 39 3.8 78 78 SSE 7 11 30.3 1026 10 16.09344 0 0
1:55 am 01:55 Cloudy 46 7.5 39 3.7 77 77 SSE 6 9 30.3 1026 10 16.09344 0 0
2:15 am 02:15 Cloudy 45 7.3 38 3.5 77 77 SSE 7 11 30.3 1026 10 16.09344 0 0
2:35 am 02:35 Cloudy 45 7.3 38 3.6 78 78 SSE 8 13 30.27 1025 10 16.09344 0 0
2:55 am 02:55 Cloudy 45 7.2 39 3.7 79 79 SSE 8 13 30.27 1025 10 16.09344 0 0
3:15 am 03:15 Cloudy 45 7 38 3.5 79 79 SSE 7 11 30.24 1024 10 16.09344 0 0
3:35 am 03:35 Cloudy 45 7.1 38 3.5 78 78 SSE 8 13 30.27 1025 10 16.09344 0 0
3:55 am 03:55 Cloudy 45 7 38 3.5 79 79 SE 8 13 30.24 1024 10 16.09344 0 0
4:15 am 04:15 Cloudy 45 7.1 38 3.1 76 76 SE 10 17 30.24 1024 10 16.09344 0 0
4:35 am 04:35 Cloudy 45 7 38 3.1 76 76 SSE 8 13 30.24 1024 10 16.09344 0 0
4:55 am 04:55 Cloudy 45 7.1 36 2.4 72 72 SSE 14 22 30.21 1023 10 16.09344 0 0
5:15 am 05:15 Cloudy 45 7 36 2.3 72 72 SSE 9 15 30.21 1023 10 16.09344 0 0
5:35 am 05:35 Cloudy 45 7 36 2.3 72 72 SSE 12 19 30.21 1023 10 16.09344 0 0
5:55 am 05:55 Cloudy 45 7 36 2 71 71 SE 9 15 30.18 1022 10 16.09344 0 0
6:15 am 06:15 Cloudy 45 7 36 2 71 71 SSE 7 11 30.18 1022 10 16.09344 0 0
6:35 am 06:35 Cloudy 44 6.8 36 2.1 72 72 SSE 8 13 30.18 1022 10 16.09344 0 0
6:55 am 06:55 Cloudy 44 6.6 37 2.6 76 76 SSE 10 17 30.18 1022 10 16.09344 0 0
7:15 am 07:15 Cloudy 43 6.1 38 3.6 84 84 SE 13 20 30.18 1022 10 16.09344 0 0
7:35 am 07:35 Cloudy 42 5.7 40 4.3 91 91 S 10 17 30.18 1022 7 11.265408 0 0
7:55 am 07:55 Cloudy with Mist and Fog 41 5.2 40 4.7 97 97 SSE 9 15 30.18 1022 5 8.04672 0 0
8:15 am 08:15 Cloudy with Mist and Fog 41 5.2 41 5 99 99 SSE 6 9 30.18 1022 3 4.828032 0 0
8:35 am 08:35 Cloudy with Mist and Fog 42 5.3 42 5.3 100 100 SSE 6 9 30.18 1022 2 3.218688 0 0
8:55 am 08:55 Cloudy with Mist and Fog 42 5.5 42 5.5 100 100 SSE 7 11 30.18 1022 2 3.218688 0 0
9:15 am 09:15 Cloudy with Mist and Fog 42 5.7 42 5.7 100 100 SSE 6 9 30.18 1022 2 3.218688 0 0
9:35 am 09:35 Cloudy with Mist and Fog 42 5.8 42 5.8 100 100 SSE 8 13 30.18 1022 2 3.218688 0 0
9:55 am 09:55 Cloudy with Mist and Fog 43 6.2 43 6.2 100 100 SSE 9 15 30.18 1022 2 3.218688 0 0
10:15 am 10:15 Cloudy with Mist and Fog 44 6.4 44 6.4 100 100 SSE 9 15 30.18 1022 2 3.218688 0 0
10:35 am 10:35 Cloudy with Mist and Fog 44 6.5 44 6.5 100 100 SSE 9 15 30.18 1022 2.5 4.02336 0 0
10:55 am 10:55 Cloudy with Mist and Fog 44 6.6 44 6.6 100 100 S 12 19 30.18 1022 2.5 4.02336 0 0
11:15 am 11:15 Cloudy with Mist and Fog 45 7 45 7 100 100 SSE 14 22 30.12 1020 5 8.04672 0 0
11:35 am 11:35 Cloudy 45 7 45 7 100 100 S 13 20 30.12 1020 10 16.09344 0 0
11:55 am 11:55 Cloudy 45 7.4 45 7.4 100 100 SSE 14 22 30.09 1019 10 16.09344 0 0
12:15 pm 12:15 Cloudy 46 8 46 8 100 100 S 12 19 30.09 1019 10 16.09344 0 0
12:35 pm 12:35 Cloudy 47 8.4 46 8 97 97 S 9 15 30.09 1019 10 16.09344 0 0
12:55 pm 12:55 Cloudy 48 9.1 47 8.4 95 95 S 12 19 30.09 1019 10 16.09344 0 0
1:15 pm 13:15 Cloudy 49 9.2 47 8.2 94 94 S 12 19 30.09 1019 10 16.09344 0 0
1:35 pm 13:35 Cloudy 49 9.3 47 8.2 93 93 S 10 17 30.06 1018 10 16.09344 0 0
1:55 pm 13:55 Cloudy 50 10 47 8.6 91 91 S 8 13 30.03 1017 10 16.09344 0 0
2:15 pm 14:15 Cloudy 51 10.4 47 8.6 89 89 S 8 13 30.03 1017 10 16.09344 0 0
2:35 pm 14:35 Cloudy 50 10.1 47 8.5 90 90 S 6 9 30.03 1017 10 16.09344 0 0
2:55 pm 14:55 Cloudy 50 10.2 47 8.5 89 89 S 8 13 30.03 1017 10 16.09344 0 0
3:15 pm 15:15 Cloudy 51 10.5 47 8.6 88 88 S 8 13 30 1016 10 16.09344 0 0
3:35 pm 15:35 Cloudy 51 10.8 48 8.8 88 88 S 7 11 30 1016 10 16.09344 0 0
3:55 pm 15:55 Cloudy 52 11.1 48 9 87 87 SSE 7 11 30 1016 10 16.09344 0 0
4:15 pm 16:15 Cloudy 52 11.2 48 9.1 87 87 SSE 9 15 30 1016 10 16.09344 0 0
4:35 pm 16:35 Cloudy 52 11.1 48 9 87 87 ESE 9 15 30 1016 10 16.09344 0 0
4:55 pm 16:55 Cloudy 52 11.1 49 9.2 88 88 ESE 8 13 30 1016 10 16.09344 0 0
5:15 pm 17:15 Cloudy 52 11 49 9.3 89 89 ESE 8 13 30 1016 10 16.09344 0 0
5:35 pm 17:35 Cloudy 52 11 49 9.3 89 89 E 9 15 30 1016 10 16.09344 0 0
5:55 pm 17:55 Cloudy 51 10.7 49 9.4 92 92 E 10 17 30 1016 10 16.09344 0 0
6:15 pm 18:15 Cloudy 51 10.4 49 9.5 94 94 E 8 13 30.03 1017 10 16.09344 0 0
6:35 pm 18:35 Cloudy 51 10.3 49 9.6 95 95 E 9 15 30.03 1017 10 16.09344 0 0
6:55 pm 18:55 Cloudy 51 10.3 49 9.7 96 96 E 10 17 30.03 1017 10 16.09344 0 0
7:15 pm 19:15 Cloudy 50 10.2 49 9.6 96 96 E 7 11 30.03 1017 10 16.09344 0 0
7:35 pm 19:35 Cloudy 50 10.2 49 9.7 97 97 E 6 9 30.03 1017 10 16.09344 0 0
7:55 pm 19:55 Cloudy 50 10.2 49 9.7 97 97 E 8 13 30.06 1018 10 16.09344 0 0
8:15 pm 20:15 Cloudy 50 10.1 49 9.7 97 97 E 9 15 30.06 1018 10 16.09344 0 0
8:35 pm 20:35 Cloudy 50 10.1 50 9.8 98 98 E 9 15 30.06 1018 10 16.09344 0 0
8:55 pm 20:55 Cloudy 50 10.1 50 10 99 99 E 9 15 30.06 1018 10 16.09344 0 0
9:15 pm 21:15 Cloudy 50 10.2 50 10 99 99 E 6 9 30.09 1019 10 16.09344 0 0
9:35 pm 21:35 Cloudy 50 10.1 50 10 99 99 E 9 15 30.09 1019 10 16.09344 0 0
9:55 pm 21:55 Cloudy 50 10.1 50 10.1 100 100 E 9 15 30.09 1019 10 16.09344 0 0
10:15 pm 22:15 Cloudy 50 10 50 10 100 100 E 8 13 30.06 1018 10 16.09344 0 0
10:35 pm 22:35 Cloudy 49 9.6 49 9.6 100 100 E 6 9 30.09 1019 10 16.09344 0 0
10:55 pm 22:55 Cloudy 49 9.4 49 9.4 100 100 ENE 6 9 30.09 1019 10 16.09344 0 0
11:15 pm 23:15 Cloudy 49 9.5 49 9.5 100 100 ENE 6 9 30.12 1020 10 16.09344 0 0
11:35 pm 23:35 Cloudy with Mist and Fog 49 9.5 49 9.5 100 100 ENE 6 9 30.12 1020 5 8.04672 0 0
11:55 pm 23:55 Cloudy 49 9.5 49 9.5 100 100 ENE 7 11 30.12 1020 7 11.265408 0 0

Powered by AerisWeather